User: anonymous   Login
Location: Unspecified
(0.0000°N, 0.0000°E)
Time: 08:35:06
(UTC+00:00)
Language:

POSAT 1 - Orbit

View from above orbital plane
View from above orbital plane
View from above satellite
View from above satellite

Ground track
Ground track

The orbit data is extracted from the following two-line orbital elements,

1 22829U 93061G   17293.45292516 +.00000009 +00000-0 +20886-4 0  9995
2 22829 098.8173 262.3231 0008666 275.9916 201.8082 14.30982395255989
Epoch (UTC): 20 October 2017 10:52:12
Eccentricity: 0.0008666
inclination: 98.8173°
perigee height: 782 km
apogee height: 794 km
right ascension of ascending node: 262.3231°
argument of perigee: 275.9916°
revolutions per day: 14.30982395
mean anomaly at epoch: 201.8082°
orbit number at epoch: 25598

The dashed part of the orbit path shows where the satellite is in the earth's shadow,  

DLR